User: anonymous   Login
Location: Unspecified
(0.0000°N, 0.0000°E)
Time: 04:56:30
(UTC+01:00)
Language:

DELTA 2 R/B (1) - Orbit

View from above orbital plane
View from above orbital plane
View from above satellite
View from above satellite

Ground track
Ground track

The orbit data is extracted from the following two-line orbital elements,

1 27665U 03005C   17328.61050883 -.00000020  00000-0  25710-4 0  9998
2 27665  39.5773  13.4095 0008886 236.2383 291.5644 14.28461266773874
Epoch (UTC): 24 November 2017 14:39:07
Eccentricity: 0.0008886
inclination: 39.5773°
perigee height: 790 km
apogee height: 803 km
right ascension of ascending node: 13.4095°
argument of perigee: 236.2383°
revolutions per day: 14.28461266
mean anomaly at epoch: 291.5644°
orbit number at epoch: 77387

The dashed part of the orbit path shows where the satellite is in the earth's shadow,  

DLR